EZY926P EGGW-EGPH

Flight info

Callsign EZY926P
Flight time 0h 52m
Altitude 32000
Route OLNEY T420 TNT UN57 POL UN601 RIBEL DCT INPIP
Aircraft A320/M-SDE3FGHIRWY/LB1

Departure

Time 2026-05-05 08:40
Airport London Luton Airport (EGGW)

Arrival

Time 2026-05-05 09:32
Airport Edinburgh Airport (EGPH)
Time Latitude Longitude Altitude Speed Heading
2026-05-05 08:15 51.87817 -0.37787 523 ft 0 kts 23°
2026-05-05 08:31 51.87806 -0.37792 523 ft 2 kts 357°
2026-05-05 08:31 51.87790 -0.37795 523 ft 2 kts 25°
2026-05-05 08:31 51.87782 -0.37811 523 ft 2 kts 119°
2026-05-05 08:31 51.87789 -0.37836 523 ft 2 kts 90°
2026-05-05 08:32 51.87786 -0.37862 523 ft 2 kts 77°
2026-05-05 08:32 51.87790 -0.37885 523 ft 2 kts 122°
2026-05-05 08:32 51.87794 -0.37896 523 ft 0 kts 119°
2026-05-05 08:34 51.87791 -0.37885 523 ft 5 kts 117°
2026-05-05 08:35 51.87770 -0.37816 523 ft 9 kts 115°
2026-05-05 08:35 51.87740 -0.37710 522 ft 12 kts 114°
2026-05-05 08:35 51.87698 -0.37562 520 ft 15 kts 116°
2026-05-05 08:35 51.87642 -0.37475 522 ft 7 kts 154°
2026-05-05 08:36 51.87603 -0.37459 523 ft 5 kts 173°
2026-05-05 08:36 51.87564 -0.37461 522 ft 8 kts 189°
2026-05-05 08:36 51.87512 -0.37511 522 ft 8 kts 234°
2026-05-05 08:36 51.87496 -0.37585 523 ft 6 kts 256°
2026-05-05 08:37 51.87488 -0.37639 523 ft 4 kts 256°
2026-05-05 08:37 51.87470 -0.37734 523 ft 8 kts 254°
2026-05-05 08:37 51.87454 -0.37829 522 ft 8 kts 254°
2026-05-05 08:37 51.87436 -0.37927 523 ft 10 kts 254°
2026-05-05 08:38 51.87413 -0.38016 524 ft 8 kts 233°
2026-05-05 08:38 51.87367 -0.38067 523 ft 9 kts 206°
2026-05-05 08:38 51.87312 -0.38110 522 ft 9 kts 200°
2026-05-05 08:38 51.87259 -0.38120 523 ft 6 kts 169°
2026-05-05 08:39 51.87249 -0.38076 524 ft 4 kts 80°
2026-05-05 08:39 51.87251 -0.38065 524 ft 0 kts 76°
2026-05-05 08:39 51.87253 -0.38050 524 ft 15 kts 76°
2026-05-05 08:40 51.87362 -0.37431 522 ft 95 kts 74°
2026-05-05 08:40 51.87600 -0.36075 535 ft 152 kts 73°
2026-05-05 08:40 51.87876 -0.34415 1214 ft 153 kts 73°
2026-05-05 08:40 51.88160 -0.32745 1994 ft 158 kts 72°
2026-05-05 08:41 51.88485 -0.30880 2322 ft 185 kts 71°
2026-05-05 08:41 51.88867 -0.28757 2639 ft 210 kts 70°
2026-05-05 08:41 51.89312 -0.27273 2905 ft 227 kts 50°
2026-05-05 08:41 51.90704 -0.25913 3491 ft 247 kts 12°
2026-05-05 08:42 51.92439 -0.26251 4363 ft 262 kts 338°
2026-05-05 08:42 51.93819 -0.28246 5328 ft 273 kts 302°
2026-05-05 08:42 51.94303 -0.31253 6305 ft 281 kts 270°
2026-05-05 08:42 51.94121 -0.34463 7288 ft 282 kts 265°
2026-05-05 08:43 51.93941 -0.37621 8278 ft 285 kts 266°
2026-05-05 08:43 51.93911 -0.40820 9337 ft 283 kts 281°
2026-05-05 08:43 51.94664 -0.43744 10259 ft 286 kts 304°
2026-05-05 08:43 51.95957 -0.46338 10632 ft 309 kts 315°
2026-05-05 08:44 51.97531 -0.48793 11192 ft 322 kts 318°
2026-05-05 08:44 51.99218 -0.51241 11990 ft 327 kts 319°
2026-05-05 08:44 52.00934 -0.53717 12791 ft 333 kts 318°
2026-05-05 08:44 52.02636 -0.56290 13598 ft 338 kts 317°
2026-05-05 08:45 52.04334 -0.58988 14315 ft 342 kts 315°
2026-05-05 08:45 52.06000 -0.61767 15077 ft 344 kts 313°
2026-05-05 08:45 52.07666 -0.64590 15749 ft 350 kts 313°
2026-05-05 08:45 52.09358 -0.67466 16405 ft 354 kts 313°
2026-05-05 08:46 52.11084 -0.70392 17081 ft 359 kts 313°
2026-05-05 08:46 52.12858 -0.73282 17765 ft 364 kts 317°
2026-05-05 08:46 52.14934 -0.75666 18414 ft 370 kts 327°
2026-05-05 08:46 52.17150 -0.77852 19017 ft 373 kts 328°
2026-05-05 08:47 52.19394 -0.80024 19622 ft 377 kts 328°
2026-05-05 08:47 52.21663 -0.82221 20230 ft 380 kts 328°
2026-05-05 08:47 52.23938 -0.84443 20818 ft 384 kts 327°
2026-05-05 08:47 52.26234 -0.86705 21395 ft 387 kts 327°
2026-05-05 08:48 52.28554 -0.89003 21990 ft 391 kts 327°
2026-05-05 08:48 52.30878 -0.91313 22600 ft 392 kts 326°
2026-05-05 08:48 52.33213 -0.93640 23191 ft 395 kts 326°
2026-05-05 08:48 52.35573 -0.96003 23721 ft 398 kts 326°
2026-05-05 08:49 52.37958 -0.98394 24202 ft 401 kts 326°
2026-05-05 08:49 52.40331 -1.00768 24666 ft 404 kts 326°
2026-05-05 08:49 52.42697 -1.03137 25123 ft 407 kts 326°
2026-05-05 08:49 52.45167 -1.05615 25587 ft 409 kts 326°
2026-05-05 08:50 52.47604 -1.08059 26038 ft 412 kts 326°
2026-05-05 08:50 52.50054 -1.10521 26475 ft 414 kts 326°
2026-05-05 08:50 52.52521 -1.13003 26921 ft 417 kts 327°
2026-05-05 08:50 52.55002 -1.15500 27382 ft 419 kts 327°
2026-05-05 08:51 52.57495 -1.18010 27814 ft 421 kts 327°
2026-05-05 08:51 52.59999 -1.20533 28240 ft 424 kts 327°
2026-05-05 08:51 52.62522 -1.23073 28650 ft 426 kts 327°
2026-05-05 08:51 52.65057 -1.25630 29052 ft 429 kts 327°
2026-05-05 08:52 52.67604 -1.28211 29459 ft 431 kts 327°
2026-05-05 08:52 52.70135 -1.30780 29859 ft 434 kts 327°
2026-05-05 08:52 52.72710 -1.33400 30230 ft 436 kts 327°
2026-05-05 08:52 52.75301 -1.36043 30560 ft 439 kts 327°
2026-05-05 08:53 52.77905 -1.38699 30898 ft 440 kts 328°
2026-05-05 08:53 52.80513 -1.41363 31214 ft 443 kts 328°
2026-05-05 08:53 52.83146 -1.44061 31511 ft 445 kts 328°
2026-05-05 08:53 52.85777 -1.46763 31843 ft 446 kts 329°
2026-05-05 08:54 52.88422 -1.49481 32001 ft 446 kts 328°
2026-05-05 08:54 52.93685 -1.54892 32029 ft 444 kts 329°
2026-05-05 08:55 52.98935 -1.60296 32029 ft 444 kts 329°
2026-05-05 08:55 53.04177 -1.65698 32035 ft 442 kts 330°
2026-05-05 08:56 53.09813 -1.69728 32038 ft 441 kts 340°
2026-05-05 08:56 53.15558 -1.73285 32038 ft 441 kts 340°
2026-05-05 08:57 53.21307 -1.76856 32038 ft 441 kts 340°
2026-05-05 08:57 53.27061 -1.80442 32038 ft 440 kts 339°
2026-05-05 08:58 53.32801 -1.84033 32038 ft 440 kts 339°
2026-05-05 08:58 53.38567 -1.87644 32049 ft 440 kts 339°
2026-05-05 08:59 53.44265 -1.91218 32044 ft 440 kts 339°
2026-05-05 08:59 53.50032 -1.94851 32044 ft 440 kts 339°
2026-05-05 09:00 53.55766 -1.98483 32046 ft 440 kts 338°
2026-05-05 09:00 53.61489 -2.02116 32046 ft 440 kts 339°
2026-05-05 09:01 53.67209 -2.05748 32045 ft 440 kts 339°
2026-05-05 09:01 53.72932 -2.09388 32049 ft 439 kts 338°
2026-05-05 09:02 53.78635 -2.13114 32046 ft 437 kts 337°
2026-05-05 09:02 53.84253 -2.16981 32046 ft 437 kts 336°
2026-05-05 09:03 53.89872 -2.20904 32046 ft 437 kts 336°
2026-05-05 09:03 53.95510 -2.24789 32046 ft 437 kts 336°
2026-05-05 09:04 54.01146 -2.28651 32045 ft 436 kts 336°
2026-05-05 09:04 54.06756 -2.32517 32046 ft 435 kts 336°
2026-05-05 09:05 54.12376 -2.36396 32048 ft 435 kts 336°
2026-05-05 09:05 54.17988 -2.40275 32049 ft 435 kts 336°
2026-05-05 09:06 54.23605 -2.44178 32055 ft 435 kts 335°
2026-05-05 09:06 54.29204 -2.48091 32051 ft 433 kts 335°
2026-05-05 09:07 54.34770 -2.52003 32051 ft 433 kts 335°
2026-05-05 09:07 54.40344 -2.55920 32048 ft 433 kts 335°
2026-05-05 09:08 54.45849 -2.59793 31697 ft 417 kts 335°
2026-05-05 09:08 54.48491 -2.61649 31548 ft 404 kts 334°
2026-05-05 09:08 54.51054 -2.63454 31394 ft 394 kts 334°
2026-05-05 09:08 54.53577 -2.65238 31243 ft 390 kts 334°
2026-05-05 09:09 54.56081 -2.67013 31078 ft 388 kts 334°
2026-05-05 09:09 54.58578 -2.68788 30943 ft 387 kts 334°
2026-05-05 09:09 54.61092 -2.70578 30714 ft 384 kts 334°
2026-05-05 09:09 54.63538 -2.72319 30361 ft 378 kts 334°
2026-05-05 09:10 54.65966 -2.74047 29892 ft 375 kts 334°
2026-05-05 09:10 54.68355 -2.75749 29469 ft 370 kts 334°
2026-05-05 09:10 54.70719 -2.77442 29048 ft 365 kts 334°
2026-05-05 09:10 54.73049 -2.79114 28660 ft 360 kts 333°
2026-05-05 09:11 54.75352 -2.80767 28256 ft 356 kts 333°
2026-05-05 09:11 54.77620 -2.82393 27867 ft 351 kts 333°
2026-05-05 09:11 54.79871 -2.84005 27466 ft 348 kts 333°
2026-05-05 09:11 54.82103 -2.85602 27063 ft 345 kts 333°
2026-05-05 09:12 54.84317 -2.87188 26649 ft 342 kts 333°
2026-05-05 09:12 54.86493 -2.88750 26241 ft 339 kts 333°
2026-05-05 09:12 54.88668 -2.90314 25816 ft 338 kts 333°
2026-05-05 09:12 54.90885 -2.91919 25341 ft 350 kts 333°
2026-05-05 09:13 54.92380 -2.93005 25009 ft 352 kts 333°
2026-05-05 09:13 54.94635 -2.94645 24511 ft 351 kts 333°
2026-05-05 09:13 54.96893 -2.96287 24022 ft 351 kts 333°
2026-05-05 09:13 54.99875 -2.98457 23329 ft 351 kts 333°
2026-05-05 09:14 55.02157 -3.00118 22331 ft 359 kts 333°
2026-05-05 09:14 55.03682 -3.01229 21908 ft 357 kts 333°
2026-05-05 09:14 55.05957 -3.02878 21377 ft 350 kts 333°
2026-05-05 09:14 55.08188 -3.04492 20873 ft 343 kts 334°
2026-05-05 09:15 55.10363 -3.06067 20464 ft 335 kts 333°
2026-05-05 09:15 55.12520 -3.07637 20053 ft 329 kts 333°
2026-05-05 09:15 55.14623 -3.09182 19666 ft 327 kts 333°
2026-05-05 09:15 55.16709 -3.10719 19270 ft 324 kts 333°
2026-05-05 09:16 55.18785 -3.12248 18885 ft 322 kts 333°
2026-05-05 09:16 55.20849 -3.13769 18502 ft 321 kts 333°
2026-05-05 09:16 55.22922 -3.15291 18045 ft 317 kts 333°
2026-05-05 09:16 55.24949 -3.16777 17489 ft 316 kts 333°
2026-05-05 09:17 55.26978 -3.18264 16949 ft 313 kts 333°
2026-05-05 09:17 55.29007 -3.19758 16420 ft 311 kts 334°
2026-05-05 09:17 55.31003 -3.21232 15905 ft 310 kts 334°
2026-05-05 09:17 55.32986 -3.22695 15395 ft 308 kts 334°
2026-05-05 09:18 55.34951 -3.24143 14987 ft 303 kts 334°
2026-05-05 09:18 55.36880 -3.25566 14626 ft 298 kts 334°
2026-05-05 09:18 55.38778 -3.26970 14272 ft 295 kts 334°
2026-05-05 09:18 55.40671 -3.28375 13915 ft 294 kts 334°
2026-05-05 09:19 55.42556 -3.29781 13528 ft 293 kts 334°
2026-05-05 09:19 55.44418 -3.31170 13377 ft 284 kts 334°
2026-05-05 09:19 55.46205 -3.32503 13281 ft 274 kts 334°
2026-05-05 09:19 55.47929 -3.33787 13159 ft 266 kts 334°
2026-05-05 09:20 55.49589 -3.35070 13048 ft 255 kts 328°
2026-05-05 09:20 55.51014 -3.36862 12735 ft 253 kts 318°
2026-05-05 09:20 55.52371 -3.38874 12314 ft 257 kts 318°
2026-05-05 09:20 55.53750 -3.40929 11922 ft 260 kts 318°
2026-05-05 09:21 55.55137 -3.42995 11519 ft 262 kts 319°
2026-05-05 09:21 55.56540 -3.45082 11118 ft 265 kts 319°
2026-05-05 09:21 55.57956 -3.47187 10713 ft 267 kts 319°
2026-05-05 09:21 55.59400 -3.49337 10290 ft 269 kts 319°
2026-05-05 09:22 55.60832 -3.51470 9873 ft 270 kts 319°
2026-05-05 09:22 55.62297 -3.53652 9417 ft 271 kts 319°
2026-05-05 09:22 55.63717 -3.55771 9013 ft 270 kts 319°
2026-05-05 09:22 55.65150 -3.57914 8605 ft 269 kts 319°
2026-05-05 09:23 55.66556 -3.60019 8195 ft 260 kts 319°
2026-05-05 09:23 55.67929 -3.62071 7801 ft 250 kts 320°
2026-05-05 09:23 55.69212 -3.63987 7434 ft 239 kts 320°
2026-05-05 09:23 55.70462 -3.65822 7077 ft 228 kts 321°
2026-05-05 09:24 55.71680 -3.67589 6716 ft 218 kts 321°
2026-05-05 09:24 55.72832 -3.69253 6404 ft 216 kts 321°
2026-05-05 09:24 55.74018 -3.70971 6020 ft 218 kts 321°
2026-05-05 09:24 55.75199 -3.72682 5669 ft 220 kts 321°
2026-05-05 09:25 55.76344 -3.74495 5335 ft 221 kts 318°
2026-05-05 09:25 55.77587 -3.75948 5234 ft 207 kts 338°
2026-05-05 09:25 55.78931 -3.76519 5208 ft 194 kts 356°
2026-05-05 09:25 55.80232 -3.76321 5130 ft 183 kts 13°
2026-05-05 09:26 55.81370 -3.75489 4967 ft 175 kts 31°
2026-05-05 09:26 55.82299 -3.74140 4782 ft 170 kts 46°
2026-05-05 09:26 55.82964 -3.72451 4571 ft 168 kts 57°
2026-05-05 09:26 55.83572 -3.70689 4342 ft 166 kts 56°
2026-05-05 09:27 55.84173 -3.68944 4110 ft 165 kts 57°
2026-05-05 09:27 55.84773 -3.67198 3880 ft 165 kts 57°
2026-05-05 09:27 55.85369 -3.65463 3655 ft 164 kts 54°
2026-05-05 09:27 55.85959 -3.63744 3434 ft 162 kts 56°
2026-05-05 09:28 55.86546 -3.62035 3217 ft 161 kts 55°
2026-05-05 09:28 55.87131 -3.60325 2983 ft 161 kts 54°
2026-05-05 09:28 55.87713 -3.58625 2772 ft 161 kts 56°
2026-05-05 09:28 55.88301 -3.56907 2541 ft 159 kts 55°
2026-05-05 09:29 55.88848 -3.55304 2353 ft 142 kts 54°
2026-05-05 09:29 55.89349 -3.53838 2137 ft 136 kts 56°
2026-05-05 09:29 55.89832 -3.52415 1937 ft 133 kts 56°
2026-05-05 09:29 55.90311 -3.51022 1741 ft 129 kts 54°
2026-05-05 09:30 55.90789 -3.49645 1602 ft 130 kts 57°
2026-05-05 09:30 55.91252 -3.48270 1406 ft 131 kts 57°
2026-05-05 09:30 55.91726 -3.46890 1209 ft 132 kts 58°
2026-05-05 09:30 55.92196 -3.45498 1019 ft 132 kts 58°
2026-05-05 09:31 55.92673 -3.44123 835 ft 128 kts 55°
2026-05-05 09:31 55.93134 -3.42750 679 ft 131 kts 56°
2026-05-05 09:31 55.93605 -3.41362 503 ft 131 kts 56°
2026-05-05 09:31 55.94080 -3.39969 315 ft 132 kts 56°
2026-05-05 09:32 55.94552 -3.38586 133 ft 129 kts 56°
2026-05-05 09:32 55.94958 -3.37371 107 ft 90 kts 60°
2026-05-05 09:32 55.95191 -3.36679 109 ft 41 kts 59°
2026-05-05 09:32 55.95254 -3.36457 102 ft 12 kts 89°
2026-05-05 09:33 55.95196 -3.36354 103 ft 11 kts 149°
2026-05-05 09:33 55.95168 -3.36325 104 ft 1 kts 149°
2026-05-05 09:33 55.95130 -3.36321 104 ft 3 kts 205°
2026-05-05 09:33 55.95129 -3.36322 104 ft 0 kts 207°
2026-05-05 09:34 55.95108 -3.36360 106 ft 5 kts 232°
2026-05-05 09:34 55.95088 -3.36389 107 ft 4 kts 206°
2026-05-05 09:34 55.95046 -3.36387 107 ft 1 kts 164°
2026-05-05 09:35 55.95017 -3.36404 106 ft 7 kts 213°
2026-05-05 09:35 55.94962 -3.36559 105 ft 8 kts 239°
2026-05-05 09:35 55.94940 -3.36602 106 ft 3 kts 200°
2026-05-05 09:36 55.94912 -3.36581 106 ft 6 kts 150°
2026-05-05 09:36 55.94878 -3.36545 107 ft 4 kts 148°
2026-05-05 09:36 55.94877 -3.36545 107 ft 0 kts 148°